Theta_e
316 317 320 321 318 316 315 315 315 315 314 315 317 317 316 316 315 314 316 317 316 315 316 316 315 314 314 313 313 313 312 313 313 313 313 313 313 313 313 313 313 313 312 311 309 309 309 309 309 309 308 307 306 305 303 302 301 300 300 299 298 298 298 297 297 297 297 296 296 295 295 295 294 293 293 293 293 292 292 292 292 292 293 293 292 292
317 317 319 319 316 315 315 315 314 314 314 315 316 316 316 317 316 315 316 318 316 315 316 316 316 314 313 313 313 313 313 313 313 313 313 312 312 313 313 313 313 313 313 314 313 309 307 308 308 308 307 306 305 304 303 302 301 300 300 299 299 298 297 297 297 297 296 296 296 295 295 294 294 293 293 293 293 293 292 292 292 292 292 292 292 292
318 318 317 315 315 315 315 316 315 315 315 316 317 317 318 318 316 315 317 318 315 315 319 318 315 314 313 313 312 313 313 313 313 314 314 314 313 313 313 313 313 313 314 318 319 311 306 307 307 307 306 305 305 303 302 302 301 300 300 299 299 298 297 297 297 297 296 296 296 295 295 294 294 293 293 293 293 293 292 292 291 291 292 292 292 292
317 318 316 315 316 316 316 316 316 316 316 317 317 317 318 317 316 315 316 319 315 315 321 320 315 313 313 313 313 313 312 313 314 314 315 315 315 314 314 314 314 314 315 318 321 314 307 305 305 305 304 304 304 303 302 301 301 300 300 299 299 298 297 297 297 296 296 296 295 295 295 294 294 293 293 293 293 292 292 292 291 291 291 291 291 291
314 318 320 317 316 317 317 317 317 317 315 317 318 317 317 317 317 315 316 319 318 318 319 316 316 315 315 314 314 315 314 314 314 314 314 314 315 315 315 315 315 315 315 317 319 314 309 306 304 304 304 303 303 302 301 301 301 300 300 299 299 298 297 297 296 296 296 296 295 294 294 294 293 293 293 293 292 292 292 292 291 291 291 291 291 291
313 317 321 320 319 320 318 318 319 319 316 316 318 319 318 317 317 317 317 317 319 324 320 316 319 320 319 319 316 315 316 315 314 314 314 314 314 314 314 315 315 315 316 317 317 313 310 307 304 303 303 303 302 302 302 301 301 301 300 299 299 298 297 297 296 296 296 295 295 294 294 293 293 292 292 292 292 292 292 292 291 291 291 291 290 290
314 316 319 320 322 323 321 321 323 322 317 316 322 324 320 319 319 319 320 319 323 329 320 316 322 321 320 321 318 316 317 317 317 315 315 314 313 314 314 314 314 315 318 318 314 311 310 307 305 303 302 302 302 302 301 301 301 301 300 299 299 298 298 297 296 296 296 295 295 294 294 293 293 292 292 292 292 292 292 291 291 291 291 290 290 289
316 316 319 320 320 322 321 320 323 323 318 318 325 330 325 323 323 322 322 324 327 326 319 317 321 321 319 319 319 318 318 318 317 316 316 315 314 314 314 314 314 316 318 318 314 310 309 307 305 303 301 302 302 302 301 301 301 300 300 299 299 298 298 297 296 296 296 295 295 294 294 294 293 293 293 292 292 292 292 291 291 291 291 290 290 289
320 319 322 322 320 321 319 319 322 323 320 320 324 328 326 323 324 323 321 325 326 322 319 320 320 320 320 317 317 316 316 317 315 315 316 315 315 315 314 315 314 315 318 317 314 311 309 306 304 303 302 302 302 302 301 301 300 300 300 299 298 298 297 297 296 296 296 295 295 294 294 293 293 293 293 292 292 292 291 291 291 291 290 290 289 289
320 319 321 324 321 319 322 326 327 324 321 320 321 325 328 328 326 322 319 321 324 321 320 321 319 319 319 316 318 317 315 317 315 315 315 314 315 315 314 315 313 316 319 317 314 311 308 305 303 303 303 302 301 302 301 300 300 300 299 299 298 298 298 297 297 296 296 295 295 294 294 293 293 293 293 292 292 292 291 291 291 291 290 290 289 289
315 313 316 321 321 321 325 323 320 321 320 318 321 324 329 332 329 327 326 323 322 320 320 322 320 317 318 317 318 318 316 318 316 315 315 314 315 315 314 314 313 315 319 317 313 311 308 304 303 303 302 301 301 301 301 300 299 299 299 299 298 298 298 297 297 296 296 295 295 294 294 294 293 293 292 292 292 291 291 291 291 291 290 290 289 289
314 313 316 320 320 322 323 317 316 319 317 319 325 325 325 330 330 328 326 321 320 320 320 322 320 317 317 317 317 317 316 316 315 316 317 316 316 315 314 314 313 314 318 317 314 312 309 306 304 302 301 301 300 300 300 300 299 299 299 298 298 298 298 297 296 296 296 295 295 295 294 294 293 293 293 292 292 291 291 291 290 290 290 289 289 289
316 315 316 317 317 319 320 319 321 320 316 319 325 324 322 325 324 323 323 322 321 320 318 318 319 317 316 316 316 317 317 317 316 316 317 318 317 316 315 315 314 315 318 318 314 312 310 308 307 303 301 300 300 300 300 299 299 298 298 298 298 298 297 297 296 296 296 295 295 295 294 294 293 293 293 292 292 292 291 291 290 290 289 289 289 289
321 319 316 314 315 318 319 318 320 320 318 318 320 322 322 322 321 322 326 326 320 321 321 317 317 319 317 319 320 317 316 317 317 316 317 318 318 317 316 315 315 317 319 317 314 313 310 308 307 304 301 300 300 300 300 299 299 298 298 298 297 298 297 297 296 296 296 295 295 295 294 294 293 293 293 292 292 292 291 291 290 290 290 289 289 289
323 319 317 317 319 319 316 315 317 321 319 315 318 321 320 325 329 325 325 324 319 326 326 316 319 323 318 319 324 319 316 316 316 316 317 316 317 317 315 315 318 320 319 316 315 313 310 308 306 303 301 300 300 300 299 299 299 298 298 297 297 297 297 297 297 296 296 295 295 295 294 294 293 293 293 292 292 292 291 291 290 290 290 290 290 290
319 319 319 317 318 318 315 314 317 322 321 316 320 321 317 323 327 319 320 322 318 324 323 316 323 327 318 316 319 317 316 316 315 315 315 315 315 316 316 318 322 322 319 317 315 314 311 309 305 302 301 301 300 300 299 299 299 299 298 298 297 297 297 297 296 296 296 295 295 294 294 294 293 293 293 292 292 292 291 291 291 290 290 290 290 290
316 321 321 314 314 316 314 316 317 320 321 317 318 319 316 320 321 318 323 323 317 318 319 317 321 322 316 316 316 315 315 315 315 314 314 314 315 316 317 320 324 322 320 318 316 313 311 310 306 301 301 301 300 300 300 299 299 299 298 298 297 297 297 296 296 296 296 295 295 294 294 294 293 293 293 292 292 292 291 291 291 290 290 290 289 289
317 318 320 316 316 315 311 313 315 315 317 318 320 319 316 319 321 322 326 325 320 320 319 318 318 317 316 318 319 318 317 316 317 316 315 314 314 314 316 320 325 323 319 316 314 313 312 311 307 302 300 301 300 300 300 299 299 299 299 298 297 297 297 296 296 296 296 295 295 294 294 294 293 293 293 292 292 291 291 290 290 290 290 289 289 289
320 316 319 317 318 317 311 313 316 314 312 317 321 319 319 322 323 323 323 322 320 320 319 318 318 316 316 316 316 317 317 317 317 316 314 313 313 313 313 319 324 321 317 316 315 314 313 312 308 303 301 301 301 301 300 299 299 299 299 298 297 297 297 296 296 296 296 295 295 295 294 294 293 293 292 292 292 291 291 291 290 290 290 289 289 288
317 317 319 316 313 315 313 314 319 318 313 313 316 317 317 319 323 324 321 320 320 319 318 319 318 317 317 317 317 316 316 317 315 314 314 313 313 312 313 317 321 320 319 318 316 314 313 312 308 303 301 302 301 301 300 299 299 299 298 298 297 297 297 296 296 296 295 295 295 295 294 293 293 292 292 292 291 291 291 291 290 290 289 289 288 288
316 317 317 315 312 313 313 315 319 320 317 315 316 317 315 314 318 321 318 318 319 318 318 318 318 317 316 317 316 314 318 318 316 316 315 314 313 313 313 315 317 318 319 318 316 314 313 311 307 302 302 302 301 301 300 299 299 298 298 298 297 297 296 296 296 296 295 295 295 294 294 293 293 292 292 291 291 291 290 290 290 290 289 289 288 287
318 318 317 317 316 315 315 316 315 316 317 317 316 317 317 315 316 317 316 317 317 316 317 317 317 317 315 316 314 313 317 319 318 317 316 314 314 314 316 316 316 317 319 318 316 314 312 312 309 304 302 302 301 301 301 300 299 298 298 298 297 297 297 296 296 296 295 295 295 294 294 293 292 292 292 291 291 290 290 290 290 289 289 288 287 287
317 318 317 317 317 318 319 316 315 315 314 315 316 316 316 315 316 317 317 317 316 316 315 316 317 317 315 315 314 312 314 316 318 318 316 315 314 314 317 317 317 317 318 318 317 315 313 312 309 304 301 301 300 301 301 300 299 298 298 298 297 297 296 296 296 296 295 295 294 294 294 293 292 292 291 291 290 290 289 289 289 289 288 288 287 286
316 318 317 316 318 321 321 316 314 315 313 314 317 316 315 314 314 316 315 314 315 316 315 316 317 316 315 316 316 315 314 314 316 317 315 314 314 314 315 315 317 318 318 317 317 316 314 313 309 307 307 303 300 300 300 299 299 298 298 297 297 297 297 297 296 295 295 295 294 294 293 292 292 291 291 290 290 289 289 288 288 288 288 287 286 286
316 318 318 318 319 321 321 317 314 314 315 316 317 318 317 315 314 315 314 314 315 314 314 316 315 315 314 315 315 315 313 312 313 314 313 314 314 315 317 317 317 317 317 317 317 316 316 316 314 312 312 306 299 300 300 299 299 298 298 298 297 297 297 296 296 295 295 294 294 293 293 292 292 291 290 290 289 289 288 287 287 287 286 286 286 285
316 317 318 318 319 320 319 318 317 317 316 315 316 317 316 315 316 316 315 315 316 315 315 316 315 314 314 313 313 312 312 312 312 312 313 313 314 316 319 320 318 317 317 318 317 316 316 317 316 314 312 305 300 299 300 298 299 298 298 298 297 297 297 296 295 295 294 294 293 292 292 292 291 291 290 289 289 288 287 286 286 286 285 285 285 284
315 315 316 316 318 319 318 318 317 318 317 315 315 315 315 315 316 315 315 316 316 316 316 316 315 315 314 314 313 312 312 312 312 312 312 312 312 313 314 316 317 316 316 315 314 314 315 315 315 314 313 306 300 299 299 299 298 298 298 297 297 297 296 296 295 294 294 293 293 292 292 291 291 290 290 289 287 287 286 285 285 285 285 284 284 283
313 313 316 315 315 317 317 317 317 316 315 315 315 315 315 315 315 315 315 315 315 316 317 316 316 316 315 314 313 313 313 313 313 313 312 311 311 312 312 313 314 313 312 312 313 314 314 314 314 314 313 306 300 298 298 298 298 298 298 297 297 296 296 295 295 294 293 293 292 291 291 291 291 290 289 288 286 285 285 284 284 284 284 284 283 283
314 313 315 315 315 315 315 315 316 315 315 314 314 315 314 315 315 315 314 314 314 315 316 315 315 316 315 313 313 313 313 313 313 313 312 312 311 311 311 313 313 312 310 311 313 314 314 314 313 312 311 308 302 298 297 297 297 297 297 297 296 296 296 295 294 293 293 292 291 291 291 290 289 288 287 286 285 284 284 283 283 283 283 283 282 282
313 313 314 314 315 315 315 314 314 314 315 314 314 314 314 314 314 314 314 313 313 314 314 314 314 315 314 313 313 313 312 313 313 312 312 312 311 311 311 311 311 311 311 313 314 313 312 312 312 311 310 309 307 302 297 296 296 295 295 296 296 295 295 295 294 293 292 291 291 291 290 289 288 287 286 285 284 283 283 282 282 282 282 282 281 281
312 314 315 315 315 314 314 314 314 314 314 314 315 314 313 314 314 313 314 314 314 314 314 313 314 314 313 312 312 312 312 312 312 312 312 312 312 312 311 311 311 311 311 312 312 312 311 311 311 311 309 309 308 303 297 296 296 295 295 295 295 295 294 294 293 292 292 291 291 290 289 288 287 286 285 284 283 283 282 282 281 281 281 281 280 280
311 313 314 315 316 315 315 314 314 314 314 314 314 314 314 314 314 314 314 314 315 315 314 314 315 314 312 312 312 312 312 312 312 312 312 312 312 311 311 311 311 311 311 311 311 311 311 310 311 310 309 309 306 300 297 298 296 294 294 294 294 294 294 293 293 292 291 291 290 289 288 287 286 285 284 283 283 282 281 281 281 280 280 280 279 279
310 312 313 315 316 317 316 315 315 314 315 315 315 315 314 314 314 315 315 314 314 314 314 315 315 313 312 312 312 312 312 312 312 311 311 311 311 311 311 310 311 311 311 310 309 309 309 309 309 309 309 308 303 299 299 299 297 295 295 295 294 294 293 292 292 291 291 290 289 289 288 286 285 284 283 282 282 281 281 280 280 279 279 279 278 278
311 311 313 314 316 317 317 316 316 316 317 319 318 316 314 314 315 315 315 314 313 313 314 314 313 313 313 312 312 312 312 311 311 311 311 312 311 311 311 310 311 311 310 309 309 309 309 308 307 307 306 303 301 301 301 301 299 298 297 295 294 293 292 292 291 291 290 289 289 288 287 285 284 283 282 281 281 280 280 279 279 279 279 278 277 277
312 311 312 314 315 316 316 316 318 319 318 319 319 316 313 313 314 315 315 314 313 313 313 313 313 312 312 312 312 312 312 311 311 311 311 312 311 311 310 310 310 310 310 309 308 308 308 308 308 309 305 300 300 301 301 300 300 299 297 294 293 292 291 291 290 290 289 288 287 287 285 284 283 282 281 280 280 279 279 278 278 278 278 277 277 277
312 312 312 313 314 315 315 316 319 319 316 315 316 314 312 312 313 314 314 313 312 313 313 313 312 312 312 312 312 311 311 311 311 311 311 311 310 309 309 309 309 309 309 309 309 309 309 308 307 307 305 301 301 301 300 301 300 298 295 293 292 291 290 290 289 288 288 287 286 285 284 283 282 281 280 280 279 278 278 278 277 277 277 276 276 276
311 312 313 313 314 315 315 315 316 316 315 314 316 315 313 312 313 313 314 314 311 310 311 311 311 311 311 311 310 310 311 311 311 311 309 308 306 304 305 305 306 307 307 308 308 308 306 304 302 302 302 301 301 301 301 301 299 296 293 291 290 289 289 288 288 288 287 286 285 284 284 283 282 281 280 279 278 278 277 277 277 276 276 275 275 274
311 312 312 313 314 314 315 316 315 316 316 315 316 315 312 311 312 312 314 313 309 305 306 307 308 308 308 307 306 307 310 311 311 310 307 303 301 301 302 302 302 302 303 304 305 304 301 300 301 301 301 301 301 302 301 300 297 294 291 289 288 288 287 287 287 287 286 286 285 284 283 282 282 280 279 278 278 277 277 276 276 276 276 275 275 274
310 311 311 313 314 314 315 317 315 317 317 313 313 313 312 312 311 311 314 313 306 301 302 302 301 301 301 301 301 303 307 309 308 305 303 300 300 300 300 300 300 300 300 301 301 301 300 299 300 301 300 299 299 300 299 297 295 292 289 287 287 286 286 286 287 287 286 286 285 284 283 282 281 280 279 278 278 277 277 276 276 275 275 275 274 274
310 310 310 312 313 312 314 314 314 316 313 306 303 305 307 310 311 313 315 312 304 301 300 299 298 298 297 297 298 299 300 302 301 299 299 298 298 297 298 298 298 299 300 299 298 299 299 298 300 300 298 296 297 297 296 294 293 290 288 287 286 285 285 286 287 287 286 285 284 283 282 281 281 280 279 278 277 277 276 276 275 275 274 274 274 274
307 308 310 311 311 311 313 312 312 313 308 299 298 300 302 308 314 314 309 304 301 299 298 297 296 296 294 295 295 295 296 297 297 296 296 296 296 295 295 296 296 296 297 298 298 299 299 298 298 298 296 295 295 294 293 292 291 289 287 286 284 286 287 288 287 286 285 284 283 282 281 281 280 280 279 278 277 276 275 275 275 274 274 273 273 274
302 305 307 308 309 311 312 311 312 312 304 297 298 300 300 305 310 304 298 298 299 298 297 296 295 294 293 294 294 293 294 294 294 294 294 294 294 294 294 295 295 295 296 296 297 298 298 298 298 298 297 295 294 293 292 291 290 288 286 285 285 287 288 287 286 285 285 283 282 282 281 280 279 279 278 277 276 276 275 274 274 273 273 273 273 272
299 300 300 302 305 308 308 311 313 310 302 297 297 297 297 298 298 296 296 299 299 296 295 295 294 293 293 293 292 292 293 293 293 294 293 293 293 293 294 294 295 296 296 296 297 297 298 298 298 297 296 295 294 293 292 290 289 287 285 285 286 287 287 286 285 285 284 283 281 281 280 279 279 278 277 276 276 275 274 273 272 272 272 272 272 271
298 298 297 300 303 302 302 306 306 301 298 298 297 296 295 296 296 296 298 299 296 294 294 294 292 292 293 292 292 292 293 292 293 293 293 293 294 293 294 294 294 295 295 295 296 297 297 298 298 298 298 296 294 294 292 291 289 287 286 287 288 286 286 285 285 284 282 281 280 279 279 278 278 277 276 276 275 274 273 272 272 271 271 271 271 270
296 297 296 298 299 298 298 300 298 295 297 299 297 295 294 294 296 299 298 295 294 293 293 293 292 292 292 292 292 292 293 293 293 293 293 293 293 293 294 294 294 295 295 295 295 296 296 297 297 296 296 297 295 293 292 291 290 288 288 289 288 286 285 284 283 282 281 280 279 278 278 277 276 276 275 275 274 274 272 271 271 270 270 270 270 270
295 295 294 295 295 295 295 295 294 294 294 295 294 293 294 296 299 299 297 294 293 293 293 292 292 292 292 292 292 292 293 293 293 293 294 294 294 294 294 294 294 295 295 295 296 296 296 297 296 295 295 296 295 293 290 290 290 290 290 289 287 286 285 283 282 281 279 278 278 277 276 276 275 274 274 273 273 273 272 271 271 270 270 270 270 270
293 293 292 292 292 292 291 292 292 293 293 293 292 292 296 300 300 296 293 292 292 292 292 292 292 292 292 292 291 291 292 292 292 293 293 293 293 293 293 293 294 294 295 295 296 295 296 296 297 298 298 297 296 294 292 291 290 291 290 289 288 286 284 282 281 279 278 277 276 275 275 274 274 273 273 272 272 272 272 271 270 270 269 269 269 270
292 292 291 290 291 291 291 291 292 292 292 292 290 290 292 295 294 291 290 291 291 291 291 291 291 290 289 289 289 289 290 290 291 291 291 291 291 291 291 292 293 293 293 294 294 295 295 296 298 299 298 297 296 296 294 293 292 292 290 289 288 286 284 282 280 279 277 276 275 274 273 273 273 272 271 271 271 271 270 270 270 270 270 270 270 270
291 291 290 290 291 291 290 291 291 291 290 289 289 289 290 290 289 289 289 289 289 289 289 289 287 287 287 287 287 288 289 289 289 289 289 289 289 289 290 291 291 292 292 292 293 294 294 295 296 296 295 295 295 295 294 293 293 292 291 289 287 286 283 281 279 278 276 274 273 272 272 272 272 271 271 271 271 270 270 270 270 270 270 271 271 272
290 290 290 290 290 290 290 290 290 289 288 288 288 289 289 288 287 287 287 287 287 287 286 286 285 286 286 286 286 287 287 287 287 287 288 288 288 288 289 289 290 290 291 291 291 292 292 293 293 293 293 294 294 294 294 293 293 292 290 288 286 285 283 280 277 276 274 273 272 271 271 271 271 270 270 270 270 269 269 269 270 270 270 271 271 271
290 290 290 290 290 290 289 289 289 288 287 288 288 289 288 286 285 285 285 285 285 284 284 284 284 284 284 284 284 285 285 285 285 286 286 286 287 287 287 288 288 289 289 289 289 290 291 291 291 292 292 293 293 293 293 293 292 291 290 288 285 284 282 280 277 274 273 272 271 271 271 271 270 270 270 270 269 269 269 269 270 270 270 271 271 271
Wind_Speed
5 4 3 6 10 11 10 11 15 14 9 8 8 8 10 8 10 12 11 7 8 6 7 13 15 16 17 19 17 15 11 9 12 12 11 11 12 13 13 13 12 15 16 13 14 22 29 32 33 35 35 35 35 37 38 40 41 41 41 41 41 41 42 42 42 41 40 39 37 35 35 35 35 34 33 32 31 30 30 29 27 26 24 23 21 19
4 6 8 13 16 12 9 11 13 11 10 10 9 10 10 7 12 14 9 7 6 5 8 11 14 16 16 19 17 12 10 11 14 14 14 15 15 14 14 15 15 15 13 6 9 17 24 28 31 32 33 34 35 36 39 41 41 41 42 43 43 43 44 45 45 44 43 43 41 40 39 39 38 37 36 35 34 32 31 30 28 27 25 24 23 21
3 7 13 16 13 9 8 8 9 10 10 10 8 8 8 6 10 12 8 7 4 5 7 9 11 13 14 17 16 13 12 12 14 15 17 17 16 14 14 15 16 15 12 8 8 11 18 25 28 30 32 35 37 38 39 41 41 42 43 44 44 44 45 45 45 45 44 43 41 39 38 38 37 36 37 36 35 33 31 30 29 27 26 25 24 22
6 8 14 15 9 9 11 9 8 8 7 8 8 8 8 6 7 9 6 4 3 4 5 7 8 9 9 12 14 16 15 13 14 16 17 17 16 16 17 14 15 15 12 10 9 8 12 18 23 27 30 33 34 35 37 39 41 43 44 45 44 44 45 45 45 45 42 40 38 35 33 35 34 33 34 32 31 32 31 30 29 28 28 27 25 23
12 8 9 11 10 11 13 10 8 6 8 11 10 9 10 10 11 12 7 4 4 4 4 5 9 8 8 13 16 14 13 13 14 15 16 17 16 17 17 15 16 16 12 11 10 9 10 13 21 27 29 31 33 35 39 41 43 44 45 45 45 44 45 45 44 43 41 38 36 32 28 29 28 27 29 30 30 32 32 32 32 31 30 28 26 24
13 7 6 8 10 12 12 9 8 7 9 11 8 11 14 13 13 13 9 6 5 6 4 3 7 8 8 13 16 11 9 11 10 12 16 17 16 16 15 17 17 14 11 11 10 11 12 13 18 23 27 30 32 36 40 43 45 44 44 45 44 44 44 44 43 43 41 39 38 35 31 31 29 26 31 35 36 36 36 36 35 33 31 29 27 25
7 8 9 10 11 11 9 7 8 11 9 10 6 11 14 11 10 11 7 3 3 6 3 3 3 8 5 8 12 8 7 11 9 10 14 13 13 13 13 16 15 11 9 9 9 11 13 13 14 18 25 31 34 37 39 41 43 43 43 44 44 44 43 43 43 43 42 41 40 40 38 37 36 33 35 38 39 39 39 37 36 34 32 30 28 26
5 7 9 13 11 8 8 8 9 11 8 8 4 8 9 8 9 8 5 5 4 4 3 2 3 7 11 7 10 10 9 12 13 12 12 11 12 13 14 15 13 10 9 9 9 11 13 13 15 19 27 34 35 36 38 39 42 42 42 43 43 43 42 42 43 44 44 43 42 41 39 37 38 37 36 37 37 38 38 37 36 35 33 31 29 27
3 5 9 11 8 7 8 8 8 11 8 6 3 5 5 4 5 1 2 4 1 4 4 4 5 4 14 7 9 11 11 11 15 15 14 13 13 14 15 16 13 10 9 9 11 13 13 13 18 24 29 33 33 34 37 39 40 40 40 40 41 42 42 42 43 45 46 45 43 41 39 37 37 36 34 35 36 36 37 36 36 35 33 31 29 27
1 4 7 8 6 8 5 2 6 9 8 4 5 4 4 3 3 5 2 1 3 5 6 6 7 3 15 9 6 6 8 10 13 13 13 14 14 14 14 15 14 8 7 9 11 12 13 15 22 26 26 28 31 33 36 37 37 38 38 39 41 42 42 43 44 45 46 45 43 42 41 39 36 34 32 32 33 35 36 35 36 36 34 32 31 29
2 0 2 4 5 6 4 3 2 4 4 2 6 5 6 5 5 4 1 4 2 9 6 10 11 8 11 9 6 5 6 10 11 8 10 11 12 14 14 13 13 10 8 9 9 9 10 14 19 21 22 26 29 31 33 34 36 38 38 39 41 42 42 43 44 45 45 45 44 43 43 41 38 36 34 33 34 35 36 36 36 36 35 34 32 31
4 1 3 3 3 4 6 3 2 3 3 4 5 4 3 4 4 5 4 4 2 9 5 13 14 12 11 7 2 3 3 7 9 8 10 12 12 14 12 11 12 10 8 8 8 7 8 10 13 16 19 24 27 29 32 34 35 37 38 39 40 41 42 43 44 45 45 45 45 44 43 43 41 39 38 38 37 38 39 38 37 36 35 34 34 32
6 7 6 1 1 5 6 2 4 6 2 5 5 5 1 4 3 3 3 0 4 7 5 9 9 9 13 7 3 9 6 5 9 9 11 12 13 13 11 11 11 8 7 8 8 8 9 10 11 13 17 22 26 30 33 33 34 36 38 39 40 42 43 43 43 45 46 46 47 46 44 44 42 41 41 41 40 41 41 40 39 39 38 37 36 35
4 6 5 3 4 5 9 6 3 3 4 7 6 6 5 3 1 2 4 3 5 7 6 5 6 5 8 4 8 14 13 12 11 11 12 12 13 14 12 10 8 7 7 8 8 9 10 11 12 12 17 22 26 30 33 34 36 36 36 39 41 41 42 42 43 45 46 47 48 47 45 44 42 42 42 42 41 41 41 41 42 42 42 42 41 40
4 8 6 9 4 7 13 14 11 5 4 7 6 6 6 5 4 4 5 6 6 7 6 3 5 4 4 2 8 11 11 10 10 11 12 12 12 11 9 8 7 7 7 7 8 10 11 12 12 12 17 22 25 28 31 33 35 36 36 40 41 41 41 43 45 45 47 48 48 46 45 44 44 43 42 42 42 42 42 42 42 43 43 43 42 41
5 11 8 8 2 9 13 11 8 6 1 3 4 4 3 5 7 5 5 6 2 4 6 3 5 6 4 6 8 8 10 9 8 11 10 10 12 9 8 10 8 7 7 7 8 10 11 11 10 12 17 21 24 26 30 33 35 37 39 41 42 43 44 45 46 46 48 48 45 45 45 44 44 43 42 41 41 42 43 43 43 43 43 42 41 40
5 7 3 3 1 4 7 3 3 4 3 2 3 4 4 3 6 4 5 2 2 4 8 4 5 6 6 8 8 7 10 9 7 9 8 11 13 10 10 10 8 7 8 9 9 10 10 10 10 13 17 21 23 27 32 36 39 42 42 41 42 42 41 42 45 46 46 45 44 44 44 44 44 44 44 44 43 42 42 42 42 42 41 41 40 38
7 6 2 5 2 3 2 1 2 2 3 6 4 6 2 3 2 3 1 2 1 6 8 6 10 8 6 8 4 4 4 7 8 10 11 12 13 12 12 10 7 7 8 8 8 8 8 9 9 12 17 23 27 31 34 38 40 40 40 40 41 41 42 45 47 46 45 44 44 45 45 45 45 46 45 44 43 42 41 41 41 41 40 40 38 37
4 6 4 4 3 3 2 2 3 4 3 5 3 2 3 1 2 2 3 3 5 8 8 10 14 10 7 9 6 4 7 9 10 12 13 13 13 12 12 9 7 7 6 6 7 7 8 9 10 12 18 24 28 31 32 34 33 34 38 40 40 41 43 44 44 43 43 43 44 45 46 46 45 44 43 42 42 42 42 42 42 41 40 39 38 37
3 4 5 1 2 1 2 2 4 2 0 1 2 2 1 2 4 3 3 3 5 9 8 10 12 9 8 6 4 8 10 9 10 11 11 12 13 12 11 9 8 7 7 7 8 9 10 10 11 15 21 25 28 30 29 29 31 35 37 37 37 38 38 38 39 41 43 44 45 43 43 44 44 42 41 41 42 42 43 43 42 41 40 39 38 38
2 4 7 1 2 1 2 4 8 8 6 3 2 3 3 2 2 1 2 2 4 8 7 8 10 10 8 3 1 5 6 8 9 9 10 11 12 12 10 9 8 8 8 8 8 9 10 10 10 16 21 22 22 23 24 28 31 34 34 34 36 37 37 38 40 42 43 44 43 42 42 43 43 42 41 40 41 42 43 43 43 42 41 40 40 40
0 3 6 1 1 5 6 5 8 11 10 8 7 7 6 6 3 2 6 5 4 5 6 8 9 10 9 3 1 3 3 6 8 8 9 11 12 12 10 10 9 8 8 9 9 9 9 9 10 13 17 18 19 22 25 29 30 31 33 36 38 37 38 41 42 43 45 44 43 43 43 41 40 40 40 40 41 42 43 44 44 44 43 42 42 41
1 1 5 5 5 7 7 3 3 7 7 4 4 5 6 5 4 6 9 6 5 5 5 8 10 9 12 12 9 8 6 6 8 9 9 10 11 12 12 12 10 8 9 9 9 9 9 9 9 10 13 16 20 24 27 28 30 33 37 38 37 37 40 43 44 44 43 42 42 42 40 38 39 39 40 41 41 42 43 44 44 45 44 44 43 42
1 1 5 7 5 5 5 3 2 2 1 1 3 3 4 3 4 7 7 4 5 7 6 9 10 8 10 12 10 9 8 6 6 7 9 10 10 11 12 10 8 9 10 9 8 8 8 7 6 7 9 12 17 22 26 28 31 33 35 35 36 39 43 44 42 40 39 40 40 39 38 38 39 40 41 42 43 43 44 44 44 45 45 44 43 42
3 1 2 4 5 4 5 4 4 2 3 2 4 4 6 6 5 6 4 2 6 9 11 11 9 7 8 9 11 14 15 13 10 7 7 9 9 8 8 7 7 8 8 8 8 8 8 7 7 8 9 10 15 21 25 28 30 32 34 36 38 40 42 41 40 39 39 39 38 38 39 40 40 42 43 44 44 44 43 43 43 44 44 43 42 41
3 3 3 4 7 8 8 7 7 5 2 1 3 5 7 8 8 6 4 5 7 10 12 11 9 9 9 11 17 22 23 23 18 12 8 9 9 8 7 7 8 7 8 10 10 9 9 8 9 10 9 10 14 20 23 26 29 32 33 36 39 40 39 38 37 37 37 37 37 38 40 41 42 44 45 45 44 43 42 41 42 42 43 43 42 40
2 3 6 10 12 11 12 10 4 2 2 4 6 8 8 8 9 7 4 6 9 9 11 11 13 16 13 13 20 24 26 27 23 18 15 13 13 13 11 8 9 9 10 11 9 8 9 9 9 10 10 11 14 20 23 25 28 31 32 34 38 38 37 37 37 36 36 37 38 39 40 42 44 45 46 44 42 41 40 41 41 41 42 41 41 40
3 6 11 15 17 15 14 14 11 9 11 13 13 14 14 13 12 11 10 13 12 10 13 15 17 20 18 18 23 26 27 27 24 21 19 15 15 17 14 10 11 13 11 8 8 10 11 11 11 11 11 11 13 19 22 25 28 31 32 34 36 36 36 36 36 36 37 38 38 39 41 43 44 44 43 41 39 39 39 40 40 40 41 40 40 40
4 8 12 15 19 19 18 19 20 19 18 19 19 20 21 20 18 17 18 20 17 15 17 16 19 22 20 19 24 26 27 28 26 23 18 15 16 18 16 12 13 14 10 8 10 11 11 13 13 12 12 11 12 15 19 22 26 28 30 31 33 35 36 36 36 36 36 37 38 40 40 40 40 39 38 38 37 38 38 39 39 39 40 40 39 39
4 7 12 17 19 21 21 22 23 24 21 20 21 22 23 23 22 22 23 23 22 22 21 21 24 26 21 20 24 25 25 24 22 21 19 19 22 22 19 17 16 14 9 9 12 13 13 14 14 12 12 11 11 13 16 20 24 27 29 31 32 34 35 36 36 36 36 37 39 38 37 36 36 36 37 37 38 38 38 38 39 39 39 38 38 37
7 8 12 14 14 15 20 22 23 24 23 23 23 23 22 23 24 24 22 20 19 21 24 26 26 23 20 21 23 23 22 20 20 24 25 25 26 24 21 18 16 13 10 11 14 14 13 13 12 11 12 13 14 15 17 21 24 27 28 29 31 33 35 36 36 36 37 38 37 35 34 34 35 35 37 38 38 38 39 39 39 39 39 38 37 37
7 7 7 9 8 9 16 21 23 23 24 24 23 23 24 25 23 22 20 18 19 22 26 26 20 17 18 21 21 21 22 23 25 27 27 26 26 23 19 17 14 11 11 13 13 12 12 12 12 13 14 15 15 16 19 23 23 23 26 29 32 32 33 35 36 35 35 35 34 34 35 35 36 37 38 38 39 39 39 39 39 39 39 38 38 37
6 6 6 8 9 8 13 19 20 19 18 16 17 24 29 28 25 22 20 21 23 22 20 18 16 17 19 18 17 20 23 24 25 25 24 23 22 20 18 18 15 12 12 13 12 13 14 13 13 14 16 15 15 19 26 28 25 26 31 33 32 32 33 35 35 34 34 34 34 36 36 37 38 38 39 39 39 40 40 40 40 40 40 39 38 37
6 8 8 8 7 7 12 16 15 13 12 10 13 23 29 28 27 25 23 25 27 23 20 18 18 20 19 17 19 21 23 23 23 22 18 14 13 15 18 18 13 11 12 12 12 13 13 12 12 13 15 17 21 26 30 30 29 31 32 30 30 32 34 34 34 33 33 34 35 36 37 38 39 39 38 39 39 40 40 41 41 40 40 40 38 37
8 9 8 7 6 7 9 12 12 10 8 6 8 17 24 27 29 29 28 27 26 25 25 25 23 22 22 21 21 21 22 24 22 19 14 11 12 15 17 17 15 12 12 12 12 12 12 13 13 12 14 19 25 26 26 26 28 28 25 25 28 31 33 33 32 32 33 34 35 36 37 38 38 37 37 38 40 41 41 41 41 41 41 40 40 40
13 10 6 6 7 6 5 9 11 7 2 2 6 12 17 20 21 21 22 23 24 26 26 25 24 24 23 23 22 21 22 21 18 15 13 13 13 13 15 17 18 17 14 12 12 12 12 13 13 14 17 21 23 22 22 25 27 24 22 25 29 31 32 32 30 31 33 34 35 37 38 38 38 37 38 39 40 40 41 41 42 42 41 40 39 40
15 13 8 7 8 8 8 10 11 11 7 5 7 9 11 13 14 15 16 18 17 17 18 20 23 23 21 19 18 19 18 16 13 10 8 11 15 16 16 16 17 19 17 14 13 12 14 15 17 20 22 21 20 21 23 24 22 21 21 23 26 28 29 29 29 31 33 33 34 36 38 39 39 38 38 40 41 41 42 42 42 43 42 41 39 39
13 13 11 8 6 8 10 9 8 11 10 8 9 10 12 15 18 17 15 11 5 10 12 10 10 11 11 12 14 13 9 8 8 6 8 15 17 16 17 17 17 18 17 15 14 12 13 15 17 21 22 19 19 22 21 20 20 22 21 21 24 26 26 26 28 30 31 33 35 37 38 40 41 40 41 42 43 43 43 43 44 44 44 44 42 41
13 12 10 7 5 8 10 8 7 7 4 2 6 9 11 15 15 11 10 6 6 13 15 16 16 15 15 15 15 13 8 4 5 6 11 16 16 14 14 15 16 17 17 17 17 15 15 18 18 17 18 16 17 18 16 18 22 22 19 19 23 23 22 24 28 32 34 36 37 39 40 41 42 42 43 43 44 44 44 45 44 44 43 43 42 40
7 7 7 7 7 10 12 9 7 6 2 7 10 13 13 9 4 2 5 3 6 11 13 15 15 14 14 14 12 11 9 6 7 10 14 16 15 13 12 13 15 16 15 17 21 22 22 22 18 11 10 10 12 13 14 19 22 19 17 19 20 18 21 28 33 34 34 34 35 38 40 41 42 43 44 44 43 42 43 42 42 41 41 39 39 39
4 4 6 7 8 12 14 12 10 5 3 9 13 16 17 11 1 2 4 6 7 9 11 12 12 12 13 11 8 8 7 7 8 12 15 15 15 15 14 12 14 16 15 16 21 24 23 23 19 13 12 12 8 9 13 17 16 14 16 17 17 21 30 34 33 31 30 32 34 37 39 40 42 42 42 41 40 38 38 39 40 42 41 39 37 38
5 4 4 5 6 8 11 13 12 5 3 10 13 12 13 9 3 3 8 9 6 9 12 12 11 12 12 10 8 8 10 11 11 13 14 15 15 16 16 14 14 17 19 21 24 24 20 18 19 18 17 13 6 8 12 14 12 11 11 13 17 26 30 28 27 29 31 33 35 37 38 39 39 40 39 38 39 38 37 36 39 41 40 39 38 37
5 5 5 5 5 5 7 9 7 4 4 12 13 9 10 6 4 7 10 7 4 9 13 12 11 11 11 12 12 12 12 13 12 12 13 15 15 15 15 15 13 13 15 17 20 23 20 15 14 17 17 12 6 7 11 13 11 9 9 13 20 22 20 21 26 29 31 32 34 36 38 38 38 39 39 39 40 40 37 35 37 38 39 39 37 36
5 4 4 4 3 3 4 4 3 4 5 6 6 4 5 5 7 7 7 6 6 9 9 9 11 12 10 11 15 15 14 14 13 12 13 15 16 15 15 15 14 13 13 13 16 21 20 14 13 18 20 16 10 9 11 14 12 9 11 17 19 17 18 23 27 29 29 31 32 33 35 36 37 38 38 39 40 39 37 37 38 37 38 38 36 36
4 3 4 5 4 3 4 5 9 9 5 1 1 5 10 10 5 4 5 7 8 8 7 7 11 12 10 11 13 13 13 13 13 13 13 13 15 16 16 15 14 13 13 15 18 21 21 17 16 17 19 20 17 12 13 16 14 11 13 17 17 16 20 24 26 28 29 30 30 32 33 33 34 35 36 38 40 39 38 38 38 36 37 36 35 34
5 5 6 5 6 7 7 8 10 10 10 11 10 6 7 6 3 4 5 8 7 7 7 7 8 10 10 10 10 10 11 12 13 13 12 12 13 14 14 15 15 13 13 14 17 21 22 20 18 14 14 19 20 15 14 16 15 14 14 13 14 17 20 23 25 26 26 27 28 30 31 31 32 33 34 36 39 39 39 40 40 37 37 37 34 33
5 5 7 7 8 10 9 9 9 10 13 16 14 7 4 5 5 4 6 6 6 7 7 5 6 8 9 9 10 11 13 13 13 13 12 11 12 13 14 15 15 15 14 14 18 22 21 16 14 12 11 15 19 18 16 17 19 20 18 14 14 18 21 24 26 25 24 26 26 28 30 32 32 31 32 35 36 35 36 39 40 39 41 41 38 34
5 5 7 8 9 9 10 11 13 13 12 12 11 9 6 6 5 5 5 5 5 6 6 5 7 8 8 9 10 11 13 13 13 13 13 12 12 12 13 14 14 15 16 17 19 21 17 13 13 13 11 14 20 21 19 20 23 23 22 19 18 20 23 26 28 26 26 26 26 27 30 31 32 32 32 34 35 35 36 37 38 42 47 48 44 39
5 6 7 8 9 10 10 10 11 11 11 11 10 9 7 5 4 4 4 5 6 6 6 7 8 8 8 10 10 10 12 14 13 13 13 13 13 13 12 13 14 14 15 17 19 19 16 14 14 14 14 17 23 22 20 22 25 25 24 23 22 23 25 27 27 26 26 27 26 27 28 29 31 33 32 33 33 33 34 35 37 42 46 43 41 41
5 7 8 7 8 9 8 7 8 9 11 11 11 8 3 3 4 4 4 5 5 6 7 8 9 9 9 10 10 11 12 13 14 14 14 13 13 14 14 14 14 13 14 18 20 20 20 19 19 18 18 22 25 23 21 24 26 25 25 26 26 26 27 27 25 23 24 25 26 27 29 29 30 32 32 32 32 30 29 28 30 37 40 37 34 36
7 8 8 8 9 11 12 11 9 8 9 11 10 5 3 4 4 5 6 5 4 5 6 7 9 11 11 10 10 11 12 14 15 15 14 13 14 15 15 16 16 15 16 19 18 17 18 21 21 20 20 24 26 25 24 26 26 25 26 27 28 29 29 28 24 21 22 25 27 29 31 30 30 31 31 32 32 31 30 27 23 27 32 31 28 27
Wind_Direction
157 171 171 198 228 227 211 203 217 232 237 247 254 258 255 256 264 258 262 245 184 194 220 215 233 238 246 255 250 251 252 244 249 247 242 239 240 241 239 239 237 238 244 244 225 213 210 210 205 202 201 198 196 195 195 193 193 193 191 191 194 195 194 193 192 192 192 191 191 192 194 195 196 196 197 199 202 204 205 206 206 205 203 202 202 202
155 183 209 218 229 231 215 209 222 235 240 250 251 258 260 248 262 261 254 252 191 195 244 227 239 246 244 254 256 249 241 238 243 245 246 241 237 242 244 245 244 245 252 242 212 210 206 204 199 196 194 191 190 191 192 192 192 192 192 193 195 194 194 195 194 194 194 195 194 194 196 196 195 196 197 199 201 203 204 206 207 207 206 205 205 205
208 217 225 223 230 241 236 218 221 232 231 241 246 255 262 246 269 267 241 250 208 188 250 241 242 251 247 254 260 254 240 234 237 239 247 249 245 245 243 244 245 249 254 242 220 208 200 196 191 189 191 191 191 190 191 192 191 191 193 196 196 195 195 196 197 197 197 198 198 199 199 198 197 197 200 201 201 201 203 205 207 207 208 208 207 207
227 228 227 224 225 236 245 238 230 246 242 237 241 250 260 248 264 267 242 251 232 204 251 256 256 256 255 265 263 254 247 241 241 241 246 252 252 250 246 244 247 247 245 237 227 206 193 188 185 187 190 190 189 189 189 190 190 191 194 196 197 197 197 197 198 198 199 198 198 201 202 200 199 198 199 200 200 200 202 204 206 209 210 210 208 208
240 229 209 212 217 224 240 242 226 249 259 242 232 234 252 249 245 255 269 310 296 283 284 277 285 269 231 248 256 252 249 247 245 245 249 252 250 254 255 253 250 246 235 226 218 198 185 184 187 190 189 187 187 189 190 190 191 194 196 198 198 197 198 198 198 198 198 197 196 197 197 197 197 197 195 195 196 197 200 204 206 209 210 210 209 209
249 228 172 194 216 220 231 240 211 209 252 257 225 213 236 246 245 255 282 326 316 296 283 233 278 275 207 220 245 250 250 252 245 238 245 249 248 252 256 255 253 245 230 222 210 190 188 189 188 189 187 186 189 192 193 192 194 196 197 198 198 198 198 199 199 198 197 196 195 193 190 189 190 190 193 196 196 196 200 205 206 208 209 210 209 208
244 212 180 199 216 213 217 240 214 196 236 269 226 204 225 238 248 259 271 295 264 264 273 148 232 274 244 213 235 239 239 253 250 236 240 244 247 246 246 251 251 241 225 220 208 189 189 188 182 187 189 190 194 196 194 194 196 197 198 198 198 198 199 199 198 198 198 197 197 197 195 194 193 193 197 201 200 200 202 205 206 207 208 209 209 207
210 195 196 210 215 206 213 237 215 183 214 264 217 189 210 226 244 251 235 223 235 269 284 143 143 282 279 234 207 212 219 245 254 247 245 241 241 245 245 247 245 233 218 205 199 195 193 189 184 190 194 195 197 195 193 194 196 197 198 198 198 198 199 199 199 199 199 200 199 200 200 200 200 201 201 201 201 203 203 203 205 205 206 208 209 209
167 185 206 204 201 207 216 230 191 164 206 249 160 163 173 196 227 168 172 226 296 328 279 196 133 280 280 248 179 205 212 227 245 243 243 241 236 240 245 249 246 229 214 199 196 199 195 190 192 194 196 198 197 194 194 196 196 197 198 198 198 199 199 200 200 201 202 202 202 201 201 203 204 205 204 201 200 202 201 201 202 203 204 206 208 209
166 200 197 166 181 214 210 205 165 168 215 228 109 92 65 61 43 67 80 75 38 304 256 191 153 217 276 270 152 186 209 212 235 237 237 237 234 238 241 249 252 236 214 206 202 200 194 192 196 196 195 196 197 196 196 196 196 197 197 197 198 200 201 201 202 202 203 203 203 203 203 204 204 203 202 200 198 199 199 199 200 201 203 204 205 207
236 206 190 162 189 199 146 102 140 166 197 142 89 56 28 13 26 51 23 67 43 277 233 177 179 190 269 284 140 165 210 202 214 226 239 242 238 241 240 244 251 240 217 208 204 198 191 191 194 194 194 195 196 196 197 196 196 196 197 198 199 201 202 202 202 203 203 203 204 205 205 205 203 200 198 197 196 197 197 197 198 200 202 203 204 204
257 243 223 222 184 132 106 97 347 11 102 99 90 76 20 332 13 26 356 57 220 266 211 179 185 188 237 274 140 239 265 202 209 211 227 239 239 243 241 237 242 236 213 195 191 184 174 180 188 193 195 194 193 195 196 197 196 196 198 198 199 201 203 203 203 203 204 204 206 208 207 207 205 201 199 198 198 197 197 197 197 198 200 202 202 203
266 228 198 218 215 152 129 110 346 345 53 104 106 102 66 298 349 357 312 133 222 258 228 190 184 205 240 259 267 277 286 229 222 215 220 230 236 244 244 235 236 228 202 185 181 177 175 183 187 192 195 192 193 196 197 197 196 197 199 199 200 203 204 203 203 204 204 205 207 209 208 208 206 204 204 203 202 201 200 199 197 196 197 197 199 201
286 268 172 150 278 184 156 175 231 270 180 161 149 143 167 208 230 256 258 265 260 263 251 190 168 240 277 279 231 241 244 230 218 216 223 225 230 239 241 242 236 217 198 185 179 180 184 192 192 192 194 193 196 198 196 196 197 198 200 201 203 205 204 203 204 204 205 207 209 210 209 209 207 206 207 206 205 204 202 200 199 198 198 198 200 202
244 287 190 165 231 184 177 205 209 170 155 180 158 145 174 176 173 212 236 247 267 281 271 184 164 236 291 261 214 222 245 247 224 219 225 225 232 240 247 256 243 213 198 184 183 191 194 195 193 193 194 196 199 197 196 197 198 199 202 203 205 206 204 204 205 205 206 208 209 210 210 209 208 208 208 208 208 207 204 202 201 200 200 201 203 205
215 270 222 172 173 166 182 218 195 123 96 220 125 118 203 195 186 221 258 232 207 312 282 210 199 241 255 254 242 239 260 261 232 228 230 237 246 247 251 251 232 204 192 187 192 200 202 197 193 194 195 198 199 196 197 198 198 201 204 205 206 207 205 204 205 206 207 208 209 210 211 210 209 208 208 209 209 208 207 205 203 202 202 204 204 205
228 278 238 159 13 166 184 230 169 155 211 188 123 184 215 161 169 214 288 287 111 273 270 230 235 278 310 285 262 244 255 257 252 250 239 241 244 239 242 241 224 202 192 194 200 201 200 197 198 200 197 196 196 197 200 201 201 203 204 205 207 208 207 206 207 208 209 208 208 210 211 211 210 209 208 209 208 207 207 206 205 204 203 205 205 205
233 266 234 167 228 255 185 86 334 283 144 130 177 216 173 58 110 155 248 317 279 251 265 266 261 278 300 284 303 18 293 262 255 249 237 238 240 236 239 235 219 208 198 203 212 208 205 202 201 202 201 201 201 201 204 205 204 205 205 206 207 207 207 207 207 208 209 208 207 209 210 211 212 211 209 208 207 206 205 204 205 205 204 205 205 205
231 251 260 169 189 288 45 96 298 325 85 131 206 216 107 135 220 152 170 221 240 242 259 273 273 272 254 260 291 307 264 245 236 234 233 237 238 238 243 240 229 218 206 209 216 215 212 208 204 202 204 206 206 207 209 208 206 207 208 209 210 209 209 209 208 208 209 209 209 209 210 211 212 212 210 207 205 204 203 204 204 204 205 204 203 203
216 230 255 200 171 285 32 159 203 231 286 74 359 348 17 180 179 181 177 169 224 240 253 268 276 275 248 235 253 251 239 233 234 233 235 239 239 242 244 238 229 216 208 208 211 215 213 211 209 206 207 207 208 209 209 207 207 209 211 211 212 213 212 211 210 209 209 211 210 210 210 210 211 211 211 208 204 203 203 203 203 203 204 202 201 201
216 233 243 284 10 246 214 198 180 182 194 185 211 249 261 226 164 228 237 175 220 239 246 253 262 268 253 187 152 265 239 224 228 227 231 235 236 241 245 241 231 218 216 215 212 218 217 213 215 214 215 213 211 211 210 208 210 211 212 212 213 213 211 211 212 211 211 211 210 210 209 209 209 209 209 208 205 203 202 203 203 203 202 201 200 201
186 251 248 237 267 243 250 234 191 192 192 181 197 207 204 205 192 245 251 229 228 243 243 247 254 263 265 257 2 304 242 224 230 226 233 239 235 236 240 240 232 222 223 220 217 221 216 212 214 214 214 210 206 209 211 211 211 210 212 213 212 212 211 212 212 212 212 211 209 210 209 208 207 206 206 206 205 203 202 202 202 201 200 199 200 200
125 201 263 257 240 248 270 280 195 209 214 200 216 213 200 191 183 228 247 246 252 250 243 254 255 255 267 277 287 292 280 251 232 222 230 241 239 235 233 229 223 223 229 228 223 223 218 217 214 204 205 207 207 210 211 211 210 211 213 213 211 212 213 214 214 213 212 211 209 209 207 205 204 204 204 204 204 203 202 201 200 200 199 199 199 200
36 159 251 262 274 297 302 323 42 62 103 254 281 240 202 197 207 236 252 257 259 254 245 255 254 247 264 276 284 293 297 287 254 234 237 244 242 240 241 234 224 227 235 236 232 230 226 222 208 192 199 209 213 214 212 211 212 213 213 212 211 213 215 215 214 213 212 211 209 205 203 203 202 202 203 203 204 204 203 200 198 198 198 198 198 199
284 223 193 241 255 288 304 291 269 248 137 179 236 221 209 214 231 258 273 252 249 248 246 257 263 254 268 295 304 300 300 298 283 258 250 257 259 261 266 262 248 242 246 248 243 240 236 224 209 203 207 209 212 215 214 212 213 213 213 212 212 214 217 216 214 212 211 211 208 202 200 201 201 201 203 203 204 204 202 199 197 196 196 197 198 199
227 200 147 210 223 228 235 236 236 224 185 203 226 222 216 205 207 229 251 250 249 244 241 249 262 260 271 300 298 291 289 285 276 266 261 260 259 262 265 262 261 258 251 245 240 234 232 229 223 219 216 216 216 216 216 214 213 214 214 214 214 214 215 214 213 211 209 208 206 201 198 198 200 202 203 203 203 202 200 198 196 195 195 197 198 198
141 192 199 219 225 225 229 235 235 152 202 247 240 232 229 215 211 215 223 240 244 248 247 243 252 260 262 270 274 274 275 275 274 273 266 256 255 259 256 248 250 248 240 239 242 243 242 240 236 229 223 222 221 219 218 216 215 214 214 214 215 214 213 211 210 209 207 206 205 202 199 198 201 203 203 202 201 199 197 196 196 195 195 197 197 197
138 217 216 223 230 235 240 247 255 254 245 246 245 241 240 237 231 228 232 235 233 244 250 240 242 252 251 248 255 261 266 270 272 271 266 261 258 259 257 246 242 244 241 238 242 244 243 242 239 233 230 226 225 224 223 221 219 216 215 215 213 211 210 209 206 205 204 204 204 204 201 200 202 202 200 199 197 195 195 194 194 195 196 197 197 198
183 229 221 227 234 234 237 242 245 247 245 243 244 246 246 244 239 234 236 236 231 239 251 249 247 250 249 244 246 252 257 264 269 271 273 272 264 260 257 247 244 248 240 229 238 238 233 237 237 233 231 228 226 227 225 224 223 219 218 217 213 210 208 206 203 202 202 202 204 206 203 200 199 198 196 194 193 193 192 192 192 194 195 196 197 198
199 226 213 226 237 232 230 233 235 239 241 240 240 242 243 245 243 239 239 240 241 247 256 258 256 254 252 248 247 250 254 261 270 276 277 272 266 263 260 254 253 254 238 221 233 233 228 232 236 235 236 234 230 228 225 223 221 218 217 216 212 209 206 202 200 200 200 202 205 205 201 197 195 193 192 191 191 191 190 190 191 192 194 195 196 197
210 217 207 222 239 233 229 231 231 232 236 238 240 240 242 246 247 246 246 248 251 255 255 253 254 256 255 252 252 255 260 264 269 270 270 268 266 265 266 265 263 259 243 230 231 232 231 232 235 238 239 237 234 230 226 225 222 218 217 215 211 208 204 200 198 199 200 202 203 201 197 193 191 190 190 190 189 189 188 189 190 191 192 193 194 195
207 222 213 223 242 232 225 230 232 232 235 238 239 241 243 243 244 245 244 243 243 248 252 251 250 252 250 250 252 256 258 260 260 261 263 265 268 272 275 275 270 253 238 232 229 229 231 230 231 234 234 235 236 231 229 228 222 217 216 214 212 207 200 198 198 198 199 200 198 195 193 190 188 188 189 188 188 188 187 188 188 189 190 191 192 194
201 225 225 226 243 237 220 227 233 233 237 236 229 232 237 239 242 244 244 244 242 243 248 249 246 246 248 249 252 252 252 252 252 254 256 261 271 279 278 274 267 249 237 234 228 227 230 228 226 228 231 235 233 230 231 227 219 216 218 215 210 202 196 196 197 197 197 196 194 192 190 189 187 187 188 187 187 186 185 185 186 187 189 190 191 192
205 224 231 229 244 244 227 231 237 234 235 229 209 215 224 231 237 241 241 241 241 240 243 244 246 250 251 248 246 247 249 249 249 251 255 261 271 275 273 273 266 246 237 236 227 223 227 228 229 232 236 239 236 234 234 230 224 223 222 214 204 197 193 193 194 194 193 192 192 191 189 188 187 187 186 186 184 184 184 185 186 187 189 189 189 189
228 228 234 233 246 252 235 235 241 235 231 229 202 206 216 224 231 238 243 244 244 246 248 249 249 249 248 248 247 248 250 252 256 261 265 262 260 265 272 276 272 255 243 240 237 232 231 231 233 237 238 239 239 235 233 231 229 226 219 207 197 193 191 191 190 191 192 191 191 190 188 187 186 185 184 183 183 183 184 185 186 186 188 188 189 190
235 235 234 230 237 249 235 226 238 250 238 163 186 200 212 223 233 244 253 252 249 248 248 250 250 249 248 250 250 251 254 259 264 270 274 280 288 297 298 291 285 278 267 258 252 243 236 232 229 231 234 236 237 232 230 232 228 217 205 198 193 190 189 188 187 189 191 191 190 189 188 186 184 183 183 182 181 182 183 184 185 186 187 187 189 190
228 231 233 230 219 226 240 236 245 265 264 220 203 201 205 213 219 232 248 251 251 257 262 260 259 261 263 264 266 268 266 270 273 274 299 335 347 346 337 328 319 310 301 289 275 260 251 240 229 228 232 235 235 231 231 231 220 200 189 187 186 186 185 185 188 190 191 191 190 188 187 186 184 182 182 181 182 183 184 185 186 187 187 186 186 188
229 232 238 243 221 224 245 247 246 257 252 236 229 218 210 213 214 222 240 255 306 355 350 334 319 316 323 332 331 320 299 282 279 291 353 0 356 350 345 345 344 338 330 321 312 299 282 267 251 240 236 238 240 237 232 220 200 184 179 179 180 182 183 186 191 192 191 191 190 188 187 186 185 184 183 184 185 185 185 186 186 187 188 187 186 187
236 235 239 251 240 234 246 252 251 252 253 284 274 258 241 230 226 239 258 268 7 16 18 25 26 23 17 8 359 0 14 6 320 326 347 344 339 339 338 337 340 342 339 338 337 328 313 309 299 269 248 241 241 237 223 199 185 176 174 178 179 179 183 191 195 195 193 193 191 189 188 187 187 187 187 187 188 187 186 187 187 188 188 188 186 185
249 238 242 247 246 249 254 260 262 259 359 11 341 325 308 277 232 242 267 284 15 12 19 25 22 20 15 4 360 9 15 359 324 316 321 323 321 322 325 327 333 334 332 336 339 337 334 336 330 298 270 265 249 229 203 187 179 173 175 177 174 178 193 200 200 198 196 193 189 188 188 188 189 190 190 190 189 188 187 187 187 186 186 186 184 182
299 274 251 244 251 254 252 258 266 262 20 4 346 341 334 321 272 138 289 309 345 358 11 16 8 4 2 355 355 354 334 308 296 297 302 308 311 314 319 322 323 324 323 326 331 334 339 342 337 327 324 317 280 218 192 181 176 178 178 170 172 194 205 205 201 196 193 189 188 188 189 190 191 192 192 191 188 186 187 188 188 186 184 182 181 179
320 301 269 256 268 262 252 260 266 249 54 15 353 356 2 346 292 298 313 305 327 358 358 356 350 346 342 335 332 320 304 296 294 294 299 307 310 313 318 322 321 322 324 326 328 331 335 335 331 329 330 326 292 219 195 184 183 186 176 175 198 209 208 203 196 192 190 189 188 189 189 190 192 191 190 189 186 185 186 188 188 186 182 179 178 176
309 303 295 281 281 281 266 260 253 242 19 12 359 6 26 15 288 292 304 299 349 3 344 331 332 336 331 325 318 309 302 301 300 300 304 307 310 312 315 317 319 319 320 321 322 324 327 328 325 322 323 322 294 239 209 194 192 187 182 204 219 214 204 198 194 191 190 189 188 189 189 190 191 190 188 187 186 184 183 183 184 183 181 178 175 173
284 281 282 286 310 315 281 269 296 324 352 17 17 355 337 306 269 272 293 313 340 340 328 320 322 323 321 317 311 308 308 308 307 310 311 311 315 317 315 317 319 318 318 315 313 318 322 321 314 314 316 314 296 257 224 209 201 192 205 222 224 212 200 197 193 189 189 189 188 189 189 188 189 188 187 186 184 182 180 180 180 181 181 179 175 172
290 283 260 265 285 281 260 284 309 318 318 311 324 315 308 302 274 242 286 318 321 317 317 312 309 312 316 311 304 302 306 308 311 316 317 315 316 316 315 318 320 318 319 318 317 320 320 313 307 308 307 304 297 272 238 223 210 205 223 231 223 209 201 195 188 186 188 188 187 187 186 186 186 187 187 185 183 181 179 178 177 179 180 179 176 172
302 306 288 283 295 290 276 275 291 305 310 304 305 312 305 291 238 216 282 306 303 295 298 296 301 313 317 314 313 311 310 312 315 316 316 317 316 316 318 320 320 321 323 322 322 322 319 314 310 308 303 303 301 286 257 240 226 224 239 240 221 208 201 192 187 187 187 186 187 185 183 182 182 184 186 186 184 184 182 179 178 178 178 179 178 176
287 302 300 295 299 297 290 291 299 303 302 300 305 314 281 243 235 267 300 305 303 302 306 314 322 323 324 329 331 321 314 316 318 318 319 321 318 316 317 316 316 318 319 319 319 319 317 314 311 306 301 300 299 293 278 260 246 241 246 245 226 211 201 192 188 188 187 186 185 183 181 180 180 182 184 185 185 185 184 183 181 179 177 178 178 176
293 318 305 284 279 279 283 294 298 291 286 289 300 310 302 278 292 327 334 333 335 333 336 348 343 333 328 326 321 314 311 312 314 313 313 314 312 310 310 309 308 308 309 311 313 313 312 310 305 301 296 290 291 291 281 268 260 251 246 242 230 212 200 194 191 189 188 186 183 182 183 183 181 181 183 185 186 185 184 184 184 182 181 181 179 174
284 298 286 278 282 283 284 286 284 283 288 292 293 299 309 323 347 1 354 351 353 350 345 341 334 325 317 313 311 311 308 307 310 311 308 306 306 305 303 302 302 303 304 308 311 310 308 303 299 296 292 287 287 286 274 266 264 256 246 240 230 213 200 195 192 190 186 184 183 183 184 185 185 184 184 184 186 187 187 187 187 185 182 182 181 179
260 266 268 279 284 280 277 275 279 290 295 294 294 302 337 36 22 357 342 345 348 339 332 326 318 312 311 311 314 316 312 309 311 311 306 303 303 303 304 303 302 301 302 306 309 307 303 300 297 294 290 287 287 283 272 265 263 255 246 238 226 213 204 195 189 187 185 183 184 184 184 185 187 187 186 185 183 183 183 186 190 188 183 181 183 185
245 248 253 264 266 266 271 274 280 289 284 282 296 324 66 75 24 344 328 326 323 320 321 319 314 313 313 312 313 313 309 307 308 308 306 303 301 302 304 304 303 305 305 305 306 303 299 297 295 291 288 288 287 283 275 269 264 254 246 237 225 216 208 196 187 186 187 188 189 188 186 186 186 187 187 185 182 178 173 172 178 185 185 182 182 184